Home > Time Zones > World Clock > Weather > U.S.A. > Gary > Past weeks

Flag for U.S.A. Weather past 2 weeks in Gary, Indiana, U.S.A.

70 °F


Feels Like: 76 °F
Forecast: 54 / 68 °F
Wind: No wind

Location: Lansing Municipal Airport

Current Time: Oct 7, 2015 at 12:26:25 PM

Latest Report: Oct 7, 2015 at 11:55 AM

Visibility: 10 mi

Pressure: 30.16 "Hg

Humidity: 59%

Dew point: 55 °F

Location of GaryLocation

Historic Weather in Gary — Graph


Gary temperature yesterday

Maximum temperature yesterday: 62 °F (at 4:15 PM)
Minimum temperature yesterday: 49 °F (at 9:55 PM)
Average temperature yesterday: 57 °F

Past Weeks' High & Low Weather Summary

High78 °F (Sep 23, 1:35 PM)100% (Oct 6, 9:15 PM)30.33 "Hg (Oct 6, 9:15 PM)
Low47 °F (Oct 3, 9:15 PM)34% (Sep 22, 3:15 PM)29.93 "Hg (Sep 29, 2:55 AM)
Average61 °F76%30.18 "Hg
* Reported Sep 22 11:15 AM — Oct 7 11:15 AM, Gary, Weather by CustomWeather, © 2015

Note: Actual official high and low records may vary slightly from our data, if they occured in-between our weather recording intervals... More about our weather records


Gary weather history for previous 24 hours

Time TempWeatherWind HumidityBarometerVisibility
11:15 AM
Wed, Oct 7
68 °FSunny.3 mph68%30.16 "Hg10 mi
10:55 AM67 °FSunny.6 mph71%30.16 "Hg7 mi
10:35 AM65 °FPartly sunny.3 mph75%30.17 "Hg10 mi
10:15 AM64 °FOvercast.3 mph78%30.16 "Hg10 mi
9:55 AM63 °FOvercast.3 mph84%30.17 "Hg7 mi
9:35 AM62 °FOvercast.3 mph90%30.17 "Hg7 mi
9:15 AM61 °FFog.No wind92%30.16 "Hg5 mi
8:55 AM59 °FFog.No wind100%30.16 "Hg2 mi
8:35 AM56 °FFog.No wind100%30.15 "Hg2 mi
8:15 AM55 °FFog.No wind100%30.15 "Hg2 mi
7:55 AM54 °FFog.No wind100%30.14 "Hg2 mi
7:35 AM52 °FFog.3 mph100%30.13 "Hg1 mi
7:15 AM51 °FFog.5 mph100%30.13 "Hg1 mi
6:55 AM50 °FFog.3 mph100%30.12 "Hg1 mi
6:35 AM49 °FFog.3 mph100%30.12 "Hg0 mi
6:15 AM48 °FFog.5 mph100%30.12 "Hg0 mi
5:55 AM49 °FFog.No wind100%30.12 "Hg0 mi
5:35 AM50 °FFog.No wind100%30.11 "Hg0 mi
5:15 AM50 °FFog.No wind99%30.11 "Hg0 mi
4:55 AM51 °FFog.No wind100%30.11 "Hg0 mi
4:35 AM53 °FFog.No wind99%30.11 "Hg2 mi
4:15 AM53 °FFog.No wind99%30.11 "Hg3 mi
3:55 AM53 °FFog.No wind99%30.10 "Hg2 mi
3:35 AM53 °FFog.No wind100%30.10 "Hg2 mi
3:15 AM52 °FFog.No wind99%30.11 "Hg2 mi
2:55 AM53 °FFog.3 mph99%30.11 "Hg3 mi
2:35 AM52 °FFog.No wind100%30.11 "Hg3 mi
2:15 AM52 °FFog.No wind100%30.11 "Hg3 mi
1:55 AM52 °FFog.No wind100%30.11 "Hg3 mi
1:35 AM52 °FFog.No wind100%30.11 "Hg3 mi
1:15 AM52 °FFog.3 mph100%30.12 "Hg3 mi
12:55 AM51 °FFog.No wind100%30.12 "Hg4 mi
12:35 AM51 °FFog.No wind100%30.12 "Hg3 mi
12:15 AM50 °FFog.3 mph100%30.11 "Hg2 mi
11:55 PM
Tue, Oct 6
49 °FFog.No wind100%30.12 "Hg0 mi
11:15 PM50 °FFog.No wind100%30.12 "Hg4 mi
10:55 PM51 °FFog.3 mph100%30.12 "Hg4 mi
10:35 PM50 °FFog.No wind100%30.11 "Hg2 mi
10:15 PM50 °FFog.5 mph100%30.11 "Hg1 mi
9:55 PM49 °FFog.5 mph100%30.12 "Hg0 mi
9:35 PM51 °FFog.No wind99%30.12 "Hg1 mi
9:15 PM52 °FFog.No wind100%30.12 "Hg3 mi
8:55 PM51 °FFog.No wind99%30.12 "Hg4 mi
8:15 PM54 °FClear.No wind95%30.12 "Hg7 mi
7:55 PM55 °FClear.No wind91%30.12 "Hg10 mi
7:35 PM54 °FClear.No wind94%30.12 "Hg7 mi
7:15 PM55 °FClear.No wind92%30.12 "Hg10 mi
6:55 PM57 °FClear.No wind88%30.11 "Hg10 mi
6:35 PM57 °FClear.No wind86%30.11 "Hg10 mi
6:15 PM59 °FSunny.5 mph82%30.11 "Hg10 mi
5:55 PM61 °FSunny.3 mph79%30.12 "Hg10 mi
4:15 PM62 °FScattered clouds.3 mph75%30.13 "Hg10 mi
3:55 PM62 °FPartly sunny.3 mph80%30.13 "Hg10 mi
3:35 PM61 °FOvercast.3 mph81%30.14 "Hg10 mi
3:15 PM61 °FOvercast.5 mph83%30.14 "Hg10 mi
2:55 PM61 °FOvercast.3 mph83%30.14 "Hg10 mi
2:15 PM61 °FOvercast.6 mph82%30.15 "Hg10 mi
1:55 PM62 °FOvercast.6 mph83%30.15 "Hg10 mi
1:15 PM61 °FOvercast.No wind84%30.16 "Hg10 mi
12:55 PM60 °FOvercast.5 mph86%30.17 "Hg10 mi
12:35 PM60 °FLow clouds.6 mph87%30.18 "Hg10 mi
12:15 PM60 °FLow clouds.5 mph90%30.18 "Hg10 mi
Weather by CustomWeather, © 2015

See weather overviewHow to use our weather pages